User: anonymous   Login
Location: Leuk
(46.3174°N, 7.6341°E)
Time: 04:15:37
(UTC+00:00)
Language:

Envisat - Orbit

View from above orbital plane
View from above orbital plane
View from above satellite
View from above satellite

Ground track
Ground track

The orbit data is extracted from the following two-line orbital elements,

1 27386U 02009A   21165.87283404 -.00000002  00000-0  12938-4 0  9998
2 27386  98.1483 160.0620 0001267  90.2642 330.9666 14.38029495 10701
Epoch (UTC): 14 June 2021 20:56:52
Eccentricity: 0.0001267
inclination: 98.1483°
perigee height: 764 km
apogee height: 766 km
right ascension of ascending node: 160.0620°
argument of perigee: 90.2642°
revolutions per day: 14.38029495
mean anomaly at epoch: 330.9666°
orbit number at epoch: 1070

The dashed part of the orbit path shows where the satellite is in the earth's shadow,  

DLR